2019-087D (44841 NORAD) Tracking and Keplerian Element Data

This shows tracking and keplerian element data for the satellite.

Feedback or suggestion? Click here.




ElementValue
Catalog44841
Name2019-087D
Epoch Orbit712
Epoch Day23.20808561
Epoch Year2020
RAAN181.8096
Inclination97.376
Eccentricity0.0012286
Argument of Perigee100.7907
Mean Anonmoly71.9911
Mean Motion15.21512622
Decay Rate2.352E-05
L11 44841U 19087D 20023.20808561 .00002352 00000-0 10740-3 0 9990
L22 44841 97.3760 181.8096 0012286 100.7907 71.9911 15.21512622 7126

Live tracking and technical data element details for 2019-087D (NORAD 44841). 2019-087D can be tracked NOW for your location showing map with azimuth and elevation plus other details from your city location.

Track the satellite on the map from your city or location and see movement details for azimuth, elevation, latitude, longitude, range, height, and movement on the map or in text.







IsCatalogInMostPopularTable: catalog: 44841, numindb: 7
Update: records affected: 1



GetName: 44841 2019-087D

Hit Count: updated at: Fri, 24 Jan 2020 12:15:10 GMT